SL-8 DEB, 25028

Orbit data source: Space-Track

SL-8 DEB, 25028 is space debris in LEO originally from a launch on Wed, 16 Jun 1993 UTC launched from the Plesetsk Missile And Space Complex (PKMTR). Debris objects in space refer to the collection of defunct objects orbiting the Earth. Examples of debris include non-operational satellites, rocket bodies, and fragments generated from explosions, collisions, or faulty payload assembly.

Loading next visibility...
Identifier
25028, 1993-036D
Orbit
LEO
Country
Flag of CISCIS
Related business
Manufacturer
Unknown
Mission
Spacecraft
Bus & Motor
Unknown
Mass
Unknown
Launch date (UTC)
1993-06-16 (33 years ago)
Launch vehicle
Unknown
Launch site
Plesetsk Missile And Space Complex (PKMTR)
Object type
Payload
Rocket body
Debris
Shape & HBR
Unknown shape, 0.1 m
Radar Cross Section
Small (<0.1 m²)

Expand to show TLE details & history
Last TLE update: 1 day ago

TLE from 1 day ago
0 SL-8 DEB
1 25028U 93036D   25351.93884900  .00000970  00000-0  30614-3 0  9998
2 25028  74.0416 283.6153 0009861 180.9952 249.4623 14.41581195577779
Epoch: 2025-12-17T22:31Z
TLE epoch observation values (Epoch: 2025-12-17T22:31:56.553Z)
Latitude
64.98699°
Longitude
-103.61044°
Altitude
766.61 km
Speed
7.476 km/s
True Right ascension
21h 24m 42s
True Declination
64° 51' 18"
Sunlit
Object was in daylight at epoch
Visualization orbit readout
Latitude
Unknown
Longitude
Unknown
Altitude
Unknown
Speed
Unknown
Apparent Right ascension
Unknown
Apparent Declination
Unknown
Sunlit
N/A
Visualization observer readout
Local Sidereal Time
00:35:01
Azimuth
Unknown
Elevation
Unknown
Doppler factor
Unknown
Orbital elements
Apogee altitude
757.926 km
Perigee altitude
743.866 km
Semi-major axis
7,129.033 km
Eccentricity
0.00099
Inclination
74.0416°
RAAN
283.6153°
Arg. of periapsis
180.9952°
True anomaly
249.35653°
Mean anomaly
249.4623°
Eccentric anomaly
249.40941°
Mean motion
3.60576 °/min
Orbital period
99.84 mins
BSTAR
0.00030614
Loading maneuver chart data...
Computing Atmospheric mass density...

Documentation

Showing up to 5 results
|